Valentine, NE

11:05 AM CST on November 19, 2017 (GMT -0600)
Miller Field

Weather History for KVTN - November, 2011

Change the Weather History Date:

Sunday, November 6, 2011

  Actual Average Record
Temperature  
Mean Temperature 39 °F 39 °F  
Max Temperature 50 °F 53 °F 82 °F (2010)
Min Temperature 27 °F 26 °F -9 °F (1991)
Degree Days  
Heating Degree Days 26 26  
Month to date heating degree days 151 147  
Since 1 July heating degree days 774 849  
Cooling Degree Days 0 0  
Month to date cooling degree days 0 0  
Year to date cooling degree days 912 821  
Moisture  
Dew Point 26 °F    
Average Humidity 60    
Maximum Humidity 96    
Minimum Humidity 24    
Precipitation  
Precipitation 0.08 in 0.02 in 0.64 in (1946)
Month to date precipitation 0.40 0.16  
Year to date precipitation 21.75 19.16  
Snow  
Snow 0.50 in 0.20 in 5.00 in (1991)
Month to date snowfall 2.3 1.0  
Since 1 July snowfall 2.3 3.2  
Since 1 September snowfall 2.3 3.2  
Snow Depth 0.00 in    
Sea Level Pressure  
Sea Level Pressure 29.74 in    
Wind  
Wind Speed 12 mph (West)    
Max Wind Speed 26 mph    
Max Gust Speed 33 mph    
Visibility 8 miles    
Events Snow    
T = Trace of Precipitation, MM = Missing Value Source: NWS Daily Summary

Daily Weather History Graph

Daily Weather History Graph

Search for Another Location

Airport or City:

Trip Planner

Search our weather history database for the weather conditions in past years. The results will help you decide how hot, cold, wet, or windy it might be!

Date:

Astronomy

Nov. 06, 2011 Rise Set
Actual Time 7:22 AM CST 5:28 PM CST
Civil Twilight 6:52 AM CST 5:58 PM CST
Nautical Twilight 6:18 AM CST 6:32 PM CST
Astronomical Twilight 5:45 AM CST 7:05 PM CST
Moon 3:17 PM CST (11/6) 3:25 AM CST (11/6)
Length of Visible Light 11h 05m
Length of Day
10h 06m
Waxing Gibbous, 86% of the Moon is Illuminated
Nov 6
Waxing Gibbous
Nov 10
Full
Nov 18
Last Quarter
Nov 25
New
Dec 2
First Quarter

Hourly Weather History & Observations

Time (CST) Temp. Windchill Dew Point Humidity Pressure Visibility Wind Dir Wind Speed Gust Speed Precip Events Conditions
12:31 AM 33.8 °F 24.3 °F 32.0 °F 93% 29.47 in 5.0 mi NW 13.8 mph 25.3 mph 0.06 in Snow Light Snow
12:41 AM 33.8 °F 24.8 °F 32.0 °F 93% 29.48 in 1.8 mi NW 12.7 mph - 0.07 in Snow Light Snow
12:52 AM 33.1 °F 23.4 °F 32.0 °F 96% 29.51 in 1.2 mi WNW 13.8 mph - 0.08 in Snow Light Snow
1:02 AM 33.8 °F 24.8 °F 32.0 °F 93% 29.49 in 1.0 mi WNW 12.7 mph - 0.01 in Snow Light Snow
1:27 AM 33.8 °F 23.5 °F 32.0 °F 93% 29.51 in 0.8 mi WNW 16.1 mph 24.2 mph 0.04 in Snow Light Snow
1:52 AM 33.1 °F 23.0 °F 32.0 °F 96% 29.54 in 0.8 mi WNW 15.0 mph 23.0 mph 0.06 in Snow Light Snow
1:10 AM 33.8 °F 24.3 °F 30.2 °F 87% 29.52 in 1.2 mi WNW 13.8 mph 21.9 mph 0.03 in Snow Light Snow
1:21 AM 33.8 °F 24.3 °F 30.2 °F 87% 29.53 in 2.5 mi WNW 13.8 mph 20.7 mph 0.03 in Snow Light Snow
1:28 AM 33.8 °F 24.3 °F 30.2 °F 87% 29.53 in 5.0 mi WNW 13.8 mph - 0.03 in Snow Light Snow
1:35 AM 33.8 °F 24.8 °F 30.2 °F 87% 29.53 in 6.0 mi WNW 12.7 mph - 0.03 in   Overcast
1:52 AM 33.1 °F 23.4 °F 30.9 °F 92% 29.56 in 9.0 mi WNW 13.8 mph - 0.03 in   Overcast
2:52 AM 33.1 °F 24.9 °F 30.9 °F 92% 29.60 in 10.0 mi West 10.4 mph - N/A   Overcast
3:52 AM 33.1 °F 25.5 °F 28.9 °F 85% 29.63 in 10.0 mi West 9.2 mph - N/A   Mostly Cloudy
4:52 AM 30.0 °F 21.1 °F 28.0 °F 92% 29.67 in 10.0 mi WSW 10.4 mph - N/A   Partly Cloudy
5:52 AM 30.9 °F 18.4 °F 26.1 °F 82% 29.71 in 10.0 mi West 20.7 mph - N/A   Clear
6:52 AM 28.9 °F 18.2 °F 25.0 °F 85% 29.77 in 10.0 mi West 13.8 mph - N/A   Clear
7:52 AM 27.0 °F 18.0 °F 24.1 °F 89% 29.81 in 10.0 mi West 9.2 mph - N/A   Clear
8:52 AM 30.9 °F 22.2 °F 26.1 °F 82% 29.83 in 10.0 mi West 10.4 mph - N/A   Clear
9:52 AM 34.0 °F 25.5 °F 28.0 °F 79% 29.85 in 10.0 mi West 11.5 mph - N/A   Clear
10:52 AM 37.0 °F 28.9 °F 30.0 °F 76% 29.89 in 10.0 mi West 12.7 mph - N/A   Clear
11:52 AM 42.1 °F 34.2 °F 30.9 °F 65% 29.88 in 10.0 mi WSW 16.1 mph 24.2 mph N/A   Clear
12:52 PM 46.0 °F 38.5 °F 28.0 °F 50% 29.87 in 10.0 mi West 19.6 mph 28.8 mph N/A   Clear
1:52 PM 48.0 °F - 24.1 °F 39% 29.87 in 10.0 mi West 21.9 mph 28.8 mph N/A   Clear
2:52 PM 48.9 °F - 21.9 °F 35% 29.87 in 10.0 mi WSW 17.3 mph 26.5 mph N/A   Clear
3:52 PM 48.9 °F - 14.0 °F 25% 29.89 in 10.0 mi West 20.7 mph 29.9 mph N/A   Clear
4:52 PM 46.9 °F - 15.1 °F 28% 29.92 in 10.0 mi West 16.1 mph - N/A   Clear
5:52 PM 35.6 °F 28.6 °F 19.4 °F 52% 29.89 in 10.0 mi WSW 9.2 mph - N/A   Clear
6:52 PM 30.9 °F 23.5 °F 21.0 °F 67% 29.99 in 10.0 mi WSW 8.1 mph - N/A   Clear
7:52 PM 30.0 °F 21.7 °F 21.0 °F 69% 30.03 in 10.0 mi SW 9.2 mph - N/A   Clear
8:52 PM 33.1 °F 30.0 °F 19.9 °F 59% 30.05 in 10.0 mi West 3.5 mph - N/A   Clear
9:52 PM 30.9 °F 27.5 °F 19.9 °F 64% 30.08 in 10.0 mi SW 3.5 mph - N/A   Clear
10:52 PM 30.2 °F 24.3 °F 19.4 °F 64% 30.03 in 10.0 mi WNW 5.8 mph - N/A   Clear